Date,TemperatureHighF,TemperatureAvgF,TemperatureLowF,DewpointHighF,DewpointAvgF,DewpointLowF,HumidityHigh,HumidityAvg,HumidityLow,PressureMaxIn,PressureMinIn,WindSpeedMaxMPH,WindSpeedAvgMPH,GustSpeedMaxMPH,PrecipitationSumIn
2013-1-8,31.8,28.1,28.8,31.3,21.0,-99.9,98,91,98,30.25,30.22,0,-67,0,0.00
2013-1-9,50.2,40.1,27.5,45.6,37.8,27.0,98,92,77,30.24,30.00,10,2,0,0.00
2013-1-10,50.7,42.3,34.7,38.0,30.9,28.3,89,65,43,30.39,30.12,10,3,0,0.00
2013-1-11,48.0,40.9,32.9,46.8,39.0,30.7,98,93,76,30.38,29.92,4,1,0,0.81
2013-1-12,50.2,45.9,43.5,49.7,45.4,43.0,98,98,98,30.02,29.91,5,1,0,0.00
2013-1-13,50.2,46.8,43.5,49.7,46.3,43.0,98,98,98,30.00,29.84,5,1,0,0.00
2013-1-14,56.3,50.7,39.2,55.7,47.5,35.7,98,90,64,30.14,29.76,6,2,0,0.08
2013-1-15,40.3,37.9,34.7,38.9,35.1,31.2,98,90,76,30.20,30.05,5,1,0,0.15
2013-1-16,36.3,34.4,32.5,35.8,33.9,32.0,98,98,98,30.04,29.67,8,2,0,0.87
2013-1-17,44.4,39.1,35.6,37.0,33.8,29.6,98,82,64,29.95,29.77,12,3,0,0.00
2013-1-18,35.8,30.0,23.7,29.9,16.4,8.0,87,59,34,30.34,29.84,15,4,0,0.00
2013-1-19,52.0,38.3,25.3,31.6,26.8,14.9,93,64,45,30.27,29.78,12,5,0,0.00
2013-1-20,56.5,43.8,30.0,34.9,26.7,14.0,75,53,25,29.90,29.56,20,8,0,0.00
2013-1-21,37.0,28.7,21.6,27.2,15.9,10.6,98,60,41,29.96,29.69,9,3,0,0.00
2013-1-22,24.8,18.5,12.0,11.2,0.5,-5.4,56,45,32,30.09,29.70,16,8,0,0.00
2013-1-23,21.2,13.7,8.2,14.3,1.2,-5.5,98,59,40,30.13,30.03,12,4,0,0.00
2013-1-24,26.2,17.2,9.0,15.1,4.3,-4.0,98,61,28,30.29,29.98,15,5,0,0.00
2013-1-25,24.6,16.5,10.2,18.7,6.3,-1.6,98,66,44,30.31,29.92,8,3,0,0.00
2013-1-26,30.4,19.8,8.1,15.5,10.3,7.5,98,70,43,30.24,29.91,13,4,0,0.00
2013-1-27,37.0,24.0,11.7,20.2,13.9,8.7,98,67,42,30.41,30.24,10,2,0,0.00
2013-1-28,35.1,30.3,20.1,34.6,28.8,18.0,98,94,80,30.37,29.86,8,2,0,0.14
2013-1-29,53.4,44.1,33.8,51.3,43.1,33.3,98,96,85,29.99,29.85,5,1,0,0.00
2013-1-30,68.7,55.5,42.1,67.8,55.0,41.6,98,98,97,29.90,29.18,14,4,0,0.05
2013-1-31,62.2,44.8,28.2,61.6,15.9,-49.5,98,49,1,29.67,28.89,25,11,0,1.13
2013-2-1,32.2,27.6,21.6,17.2,11.0,6.4,62,50,37,30.11,29.67,21,7,0,0.00
2013-2-2,30.4,23.8,15.3,27.4,10.6,6.0,98,58,36,30.18,29.87,16,5,0,0.00
2013-2-3,39.0,28.6,23.9,32.4,24.9,20.5,98,87,55,29.88,29.64,7,2,0,0.01
2013-2-4,31.1,25.9,19.8,26.8,14.2,10.4,98,62,43,29.86,29.69,16,5,0,0.00
2013-2-5,35.1,30.5,25.9,34.6,30.0,25.4,98,98,98,29.81,29.73,4,1,0,0.00
2013-2-6,41.0,32.1,24.3,32.2,24.7,14.5,98,76,51,30.20,29.76,12,3,0,0.01
2013-2-7,36.3,28.7,21.0,31.2,18.7,12.1,95,67,50,30.36,30.14,5,2,0,0.00
2013-2-8,37.6,33.6,30.6,37.1,33.1,30.1,98,98,97,30.13,29.49,10,5,0,0.33
2013-2-9,35.8,29.0,20.7,31.3,20.4,7.9,98,73,47,30.21,29.61,14,5,0,0.05
2013-2-10,41.0,26.9,14.4,24.9,14.6,7.3,98,62,27,30.34,30.16,7,2,0,0.09
2013-2-11,48.0,38.6,29.8,47.5,37.7,25.2,98,96,80,30.16,29.48,6,1,0,0.32
2013-2-12,47.5,39.8,29.8,39.8,30.0,25.7,98,70,49,29.83,29.59,18,5,0,0.00
2013-2-13,46.6,34.8,23.0,36.5,28.9,22.5,98,81,53,29.82,29.52,5,1,0,0.00
2013-2-14,48.2,37.0,27.9,39.1,32.4,27.4,98,86,50,29.86,29.55,8,2,0,0.16
2013-2-15,58.8,43.0,28.6,41.0,34.7,28.1,98,76,46,29.87,29.75,9,3,0,0.00
2013-2-16,40.5,35.4,29.7,38.0,28.3,14.7,98,77,53,29.82,29.60,10,4,0,0.05
2013-2-17,33.1,27.1,18.7,14.5,7.3,0.5,53,43,32,29.90,29.56,21,10,0,0.00
2013-2-18,38.3,26.3,16.7,16.8,8.1,1.0,58,46,33,30.14,29.91,16,6,0,0.00
2013-2-19,49.6,36.8,21.7,44.5,32.8,15.5,98,87,53,30.05,29.53,11,4,0,0.21
2013-2-20,36.1,30.2,24.4,31.4,15.5,11.1,83,54,44,29.87,29.60,21,8,0,0.00
2013-2-21,37.9,28.6,22.8,18.1,14.8,11.3,70,56,44,30.14,29.87,20,8,0,0.00
2013-2-22,40.3,31.2,21.7,35.2,25.2,14.6,98,79,58,30.26,30.10,6,2,0,0.00
2013-2-23,46.8,40.0,34.3,46.3,39.5,33.8,98,98,98,30.11,29.64,7,2,0,0.21
2013-2-24,50.5,38.9,31.8,44.8,33.6,23.0,98,82,55,29.85,29.60,12,5,0,0.01
2013-2-25,46.0,37.3,28.6,33.1,28.6,23.3,98,72,55,30.02,29.86,10,4,0,0.00
2013-3-2,34.3,31.7,29.5,23.8,23.0,21.9,73,70,65,29.61,29.59,5,3,0,0.00
2013-3-3,40.8,32.1,27.3,23.6,20.7,17.9,72,63,50,29.64,29.55,13,6,0,0.00
2013-3-4,43.9,34.5,27.5,24.2,21.0,17.5,68,58,44,29.78,29.64,17,7,0,0.00
2013-3-5,54.7,39.7,29.1,41.7,27.6,22.6,97,63,38,29.88,29.78,9,3,0,0.00
2013-3-6,42.4,38.4,32.5,41.9,37.6,32.0,98,97,88,29.81,29.63,20,7,0,0.08
2013-3-7,43.0,37.8,32.5,41.2,34.6,31.0,98,89,65,29.94,29.76,14,5,0,0.06
2013-3-8,41.4,35.1,30.0,40.9,33.9,29.5,98,95,80,30.05,29.87,14,4,0,0.29
2013-3-9,63.7,43.6,28.8,31.8,24.7,13.8,98,54,15,30.16,30.04,8,3,0,0.00
2013-3-10,57.4,40.1,26.4,41.0,34.1,24.0,98,82,46,30.22,30.11,8,2,0,0.00
2013-3-11,61.0,47.1,32.9,53.0,44.0,32.4,98,91,56,30.15,29.92,9,3,0,0.00
2013-3-12,54.7,51.5,45.5,54.1,50.4,27.3,98,96,39,29.90,29.56,10,5,0,0.14
2013-3-13,51.8,42.5,34.9,44.3,34.5,27.2,98,77,41,29.76,29.66,14,5,0,0.00
2013-3-14,43.0,35.8,29.1,27.1,16.5,12.1,71,46,31,29.84,29.72,22,8,0,0.00
2013-3-15,50.0,39.4,26.4,33.9,22.8,12.7,62,51,43,29.86,29.56,15,5,0,0.00
2013-3-16,45.1,36.3,32.7,36.4,30.7,25.1,98,81,56,29.78,29.61,6,1,0,0.00
2013-3-17,40.1,33.4,27.3,33.1,24.3,19.3,98,72,47,30.15,29.77,9,3,0,0.07
2013-3-18,39.0,32.2,26.4,34.9,24.7,13.5,98,75,53,30.24,29.81,9,4,0,0.35
2013-3-19,52.7,40.6,35.1,45.7,34.3,19.2,98,81,44,29.77,29.54,16,5,0,0.60
2013-3-20,49.1,38.8,30.2,25.1,21.3,19.2,65,50,34,29.77,29.63,17,5,0,0.00
2013-3-21,40.1,34.0,28.6,32.6,22.0,14.1,98,64,38,29.67,29.49,11,4,0,0.00
2013-3-22,44.2,33.6,24.3,24.2,20.4,13.9,87,59,41,29.76,29.61,18,6,0,0.00
2013-3-23,49.6,38.5,29.5,25.4,22.2,20.3,71,53,36,29.80,29.69,21,6,0,0.00
2013-3-24,48.9,38.6,27.0,29.1,23.6,20.0,80,56,38,29.82,29.53,9,3,0,0.00
2013-3-25,38.5,36.2,33.4,36.2,33.5,29.0,98,90,71,29.54,29.31,8,3,0,0.33
2013-3-26,52.5,42.7,34.9,41.0,34.2,27.6,98,75,40,29.73,29.45,10,4,0,0.02
2013-3-27,54.0,43.3,31.1,38.0,31.2,27.2,98,65,38,29.86,29.73,16,5,0,0.00
2013-3-28,50.9,43.2,31.8,35.9,32.7,30.9,98,69,48,29.98,29.83,11,4,0,0.00
2013-3-29,56.5,44.7,31.1,35.8,32.0,29.6,98,64,39,30.02,29.92,10,3,0,0.00
2013-3-30,63.1,46.4,30.2,38.0,29.7,20.7,98,59,23,30.04,29.91,10,3,0,0.00
2013-3-31,58.1,44.6,30.0,49.9,37.9,28.7,98,81,41,29.97,29.53,12,3,0,0.22
2013-4-1,65.5,49.9,36.9,54.3,39.2,15.4,98,71,37,29.77,29.48,19,6,0,0.00
2013-4-2,46.2,37.2,25.7,18.6,15.5,12.6,74,43,26,29.95,29.78,15,6,0,0.00
2013-4-3,48.6,38.2,26.4,19.3,15.4,12.0,63,40,25,30.16,29.96,22,6,0,0.00
2013-4-4,55.2,41.2,26.6,28.8,20.9,13.3,65,45,31,30.26,29.93,7,3,0,0.00
2013-4-5,65.7,49.6,39.4,43.5,29.9,21.1,98,54,19,29.94,29.56,11,4,0,0.00
2013-4-6,59.2,44.9,33.6,29.9,20.0,12.9,73,40,19,30.16,29.86,8,4,0,0.00
2013-4-7,65.7,50.7,36.9,50.0,39.1,30.2,95,68,35,30.16,29.84,16,5,0,0.00
2013-4-8,80.6,61.5,42.8,54.8,49.3,42.3,98,70,34,29.93,29.81,7,2,0,0.00
2013-4-9,86.2,71.8,60.1,61.9,53.1,43.1,98,59,23,29.81,29.72,16,4,0,0.00
2013-4-10,89.2,68.3,57.9,61.0,57.3,52.8,98,71,39,29.76,29.59,8,3,0,0.99
2013-4-11,63.7,57.6,47.3,63.1,56.7,46.8,98,97,87,29.82,29.57,9,3,0,0.00
2013-4-12,47.3,43.8,42.1,46.8,43.3,41.6,98,98,98,29.80,29.53,11,5,0,0.91
2013-4-13,61.0,49.7,38.3,48.4,41.6,37.8,98,78,45,29.82,29.59,12,3,0,0.02
2013-4-14,63.1,51.3,38.8,46.3,37.9,29.3,98,65,34,30.04,29.81,14,3,0,0.00
2013-4-15,64.0,51.7,43.5,46.7,38.0,33.5,94,61,44,30.21,30.04,8,3,0,0.00
2013-4-16,74.1,59.9,46.6,61.5,54.1,46.1,98,83,56,30.21,29.95,11,4,0,0.00
2013-4-17,79.7,63.4,51.4,60.9,48.1,34.4,98,65,20,30.12,29.94,6,2,0,0.00
2013-4-18,62.6,54.5,45.0,57.7,52.1,44.5,98,92,70,30.16,29.90,8,2,0,0.00
2013-4-19,81.1,67.8,57.7,72.7,65.4,57.1,98,93,65,29.91,29.46,12,5,0,0.16
2013-4-20,61.2,52.4,46.2,56.4,38.1,28.3,98,62,36,30.15,29.52,15,6,0,0.20
2013-4-21,59.7,45.8,32.9,35.7,27.0,21.1,87,49,27,30.46,30.15,9,3,0,0.00
2013-4-22,55.0,44.4,31.3,43.4,36.5,30.8,98,77,43,30.49,30.32,11,3,0,0.00
2013-4-23,50.7,45.2,40.3,50.0,43.5,38.1,98,94,81,30.32,29.97,8,3,0,0.00
2013-4-24,76.3,56.1,35.8,60.4,49.9,35.3,98,83,52,29.97,29.64,10,3,0,0.00
2013-4-25,69.6,55.3,42.4,60.6,36.3,28.3,98,52,23,30.11,29.70,16,4,0,0.00
2013-4-26,67.6,53.9,38.5,41.8,36.3,29.7,98,57,25,30.26,30.10,10,3,0,0.00
2013-4-27,73.4,56.7,40.8,40.1,35.3,32.6,87,49,24,30.29,30.11,7,2,0,0.00
2013-4-28,73.9,57.4,39.0,48.9,40.8,31.7,98,60,32,30.16,30.03,14,2,0,0.00
2013-4-29,54.7,53.3,51.8,53.7,52.1,44.7,98,96,69,30.07,29.99,6,1,0,0.29
2013-4-30,70.3,57.0,43.3,58.2,46.1,32.3,98,72,33,30.17,30.03,9,2,0,0.07
2013-5-1,70.9,54.3,37.4,50.0,42.0,34.2,98,69,32,30.32,30.16,9,2,0,0.00
2013-5-2,78.6,57.3,39.6,53.5,45.1,39.1,98,70,26,30.32,30.16,5,1,0,0.00
2013-5-3,68.2,55.2,44.6,49.1,44.7,39.0,98,72,41,30.29,30.19,8,2,0,0.00
2013-5-4,75.0,54.6,39.7,52.8,45.0,39.2,98,75,38,30.21,30.06,7,2,0,0.00
2013-5-5,66.9,51.9,39.9,48.7,44.4,39.4,98,79,47,30.13,30.05,6,2,0,0.00
2013-5-6,72.3,56.7,43.5,59.3,53.0,43.0,98,89,58,30.10,29.97,6,1,0,0.00
2013-5-7,71.8,60.3,50.5,69.1,59.3,50.0,98,97,87,30.00,29.89,6,2,0,0.00
2013-5-8,70.3,61.0,54.5,69.7,60.4,53.9,98,98,98,29.90,29.74,4,1,0,1.64
2013-5-9,72.3,61.5,54.1,65.4,58.4,53.5,98,90,65,29.81,29.72,6,1,0,0.55
2013-5-10,84.2,69.0,51.8,69.0,58.7,51.3,98,74,38,29.83,29.70,6,1,0,0.18
2013-5-11,77.9,66.0,61.9,73.9,65.1,61.3,98,97,81,29.73,29.51,8,2,0,0.68
2013-5-12,68.5,60.1,48.6,60.9,45.9,30.7,98,65,29,29.80,29.50,16,4,0,0.03
2013-5-13,58.1,48.8,37.8,40.3,34.1,28.0,98,60,37,29.97,29.79,13,3,0,0.00
2013-5-14,63.7,50.4,38.3,42.4,33.8,25.5,98,59,25,30.01,29.87,10,2,0,0.00
2013-5-15,77.5,60.4,43.9,66.4,54.0,42.6,98,81,55,29.92,29.51,11,2,0,0.00
2013-5-16,82.2,68.2,55.4,68.4,62.1,54.8,98,84,56,29.68,29.54,7,1,0,0.05
2013-5-17,77.7,64.9,54.1,59.0,47.9,43.8,98,56,32,30.02,29.66,7,2,0,0.00
2013-5-18,67.5,58.8,50.2,64.7,57.2,49.7,98,95,77,30.14,30.03,6,0,0,0.04
2013-5-19,61.0,58.2,55.4,60.4,57.6,54.8,98,98,98,30.12,29.99,5,0,0,0.21
2013-5-20,81.3,68.3,57.7,77.7,67.0,57.1,98,96,81,30.00,29.78,6,1,0,0.01
2013-5-21,87.4,74.9,60.8,80.0,70.9,60.2,98,89,66,29.80,29.65,7,2,0,0.00
2013-5-22,87.6,75.9,67.3,82.2,73.5,66.7,98,93,64,29.73,29.63,9,2,0,0.00
2013-5-23,80.8,72.8,68.9,80.2,68.8,-33.6,98,95,1,29.71,29.55,11,3,0,0.84
2013-5-24,68.5,55.3,43.7,67.9,54.7,43.2,98,98,98,29.82,29.51,11,3,0,0.80
2013-5-25,61.5,52.0,43.2,51.1,42.9,37.5,98,74,48,29.89,29.78,12,5,0,0.26
2013-5-26,71.1,57.4,43.5,45.4,42.2,37.8,98,61,33,30.05,29.86,14,4,0,0.00
2013-5-27,75.2,59.2,40.3,54.0,44.6,39.8,98,65,30,30.11,29.98,10,2,0,0.00
2013-5-28,67.6,57.9,48.4,65.5,57.0,47.9,98,97,78,30.06,29.95,3,0,0,0.45
2013-5-29,90.3,74.3,59.0,79.0,66.7,58.4,98,80,49,29.95,29.82,8,2,0,0.00
2013-5-30,95.2,81.6,68.9,78.2,71.0,66.5,98,75,42,29.96,29.88,7,2,0,0.00
2013-5-31,95.5,79.9,65.3,79.4,69.2,60.3,98,75,34,29.95,29.80,11,2,0,0.00
2013-6-1,95.4,81.6,68.0,78.1,71.9,66.7,98,76,45,29.84,29.71,9,3,0,0.00
2013-6-2,89.4,80.6,71.6,78.7,73.7,69.7,98,81,56,29.73,29.59,10,4,0,0.01
2013-6-3,82.9,72.1,63.7,77.8,70.3,63.1,98,95,66,29.70,29.60,6,1,0,0.83
2013-6-4,77.5,64.6,54.0,62.0,52.7,47.6,98,69,38,29.94,29.70,8,2,0,0.00
2013-6-5,80.6,64.5,48.7,60.3,53.3,47.3,98,70,43,30.05,29.93,4,1,0,0.00
2013-6-6,73.9,63.2,54.1,66.7,59.5,53.5,98,89,54,29.97,29.81,5,1,0,0.16
2013-6-7,64.8,62.4,60.3,64.2,61.8,59.7,98,98,98,29.80,29.40,5,1,0,4.67
2013-6-8,79.3,68.7,58.3,72.4,65.7,57.7,98,91,74,29.87,29.39,9,2,0,0.09
2013-6-9,84.6,72.0,57.6,70.6,63.3,57.0,98,78,47,30.00,29.88,7,1,0,0.00
2013-6-10,71.1,67.7,64.8,70.5,54.3,-37.0,98,85,1,29.96,29.61,5,0,0,1.76
2013-6-11,86.5,75.7,67.8,76.6,69.8,65.8,98,83,60,29.60,29.45,10,4,0,0.12
2013-6-12,84.2,72.8,63.5,69.2,63.7,59.6,98,76,47,29.65,29.54,11,3,0,0.00
2013-6-13,75.4,65.1,58.1,74.8,62.8,-39.5,98,95,1,29.65,29.22,5,1,0,0.93
2013-6-14,75.7,61.0,53.8,71.4,58.4,53.2,98,92,61,29.72,29.33,7,2,0,0.40
2013-6-15,82.6,68.3,54.5,69.1,60.1,53.9,98,79,44,29.84,29.72,6,1,0,0.00
2013-6-16,83.1,70.6,57.0,74.1,64.0,56.4,98,83,46,29.82,29.61,8,2,0,0.00
2013-6-17,89.2,73.2,62.4,77.8,68.7,61.8,98,88,53,29.73,29.65,8,1,0,0.17
2013-6-18,79.7,67.9,63.0,79.1,67.3,62.4,98,98,98,29.71,29.62,4,1,0,0.25
2013-6-19,80.2,68.2,59.0,64.1,59.2,53.7,98,77,42,29.97,29.68,6,2,0,0.00
2013-6-20,83.5,69.2,53.4,67.6,59.9,52.8,98,75,49,30.09,29.98,8,2,0,0.00
2013-6-21,86.0,70.7,55.2,63.4,58.9,54.4,98,69,45,30.14,30.04,7,2,0,0.00
2013-6-22,86.5,72.5,54.9,75.1,65.4,54.3,98,81,54,30.09,29.92,7,2,0,0.00
2013-6-23,89.4,74.7,61.3,80.4,71.4,60.7,98,91,59,30.01,29.86,7,2,0,0.13
2013-6-24,94.5,79.8,70.5,84.6,73.5,67.5,98,83,53,29.88,29.77,7,2,0,0.00
2013-6-25,93.9,80.1,67.3,84.9,73.5,66.7,98,83,50,29.81,29.64,9,2,0,0.00
2013-6-26,87.4,76.0,70.5,81.9,74.5,69.9,98,95,66,29.68,29.58,7,1,0,0.05
2013-6-27,90.1,78.4,70.9,84.7,75.5,70.3,98,92,66,29.62,29.36,8,2,0,1.12
2013-6-28,88.3,77.0,70.3,83.7,73.9,69.7,98,91,62,29.37,29.27,9,3,0,0.01
2013-6-29,89.2,77.5,66.9,80.0,71.2,66.3,98,84,53,29.51,29.28,6,2,0,0.00
2013-6-30,84.2,75.7,70.2,83.6,75.1,69.6,98,98,98,29.71,29.50,4,1,0,0.16
2013-7-1,78.6,75.3,72.5,78.0,74.7,71.9,98,98,98,29.84,29.69,5,1,0,0.70
2013-7-2,85.8,77.0,72.5,85.2,76.4,71.9,98,98,98,30.01,29.83,8,2,0,0.26
2013-7-3,88.3,77.6,70.2,87.7,77.0,69.6,98,98,98,30.06,29.97,6,1,0,0.84
2013-7-4,91.4,81.5,74.7,87.6,78.5,74.1,98,91,67,30.06,29.97,9,2,0,0.01
2013-7-5,94.3,83.3,73.2,89.6,78.3,72.6,98,87,60,30.03,29.90,8,2,0,0.00
2013-7-6,95.2,84.1,75.4,88.6,79.1,74.8,98,87,55,29.95,29.84,10,2,0,0.00
2013-7-7,96.1,84.3,74.3,88.8,79.1,73.7,98,86,57,29.88,29.73,8,2,0,0.00
2013-7-8,89.1,78.0,70.0,85.4,74.8,69.4,98,91,62,29.87,29.79,9,2,0,0.00
2013-7-9,90.0,78.1,68.0,86.5,75.4,67.4,98,92,66,29.88,29.79,6,1,0,0.64
2013-7-10,89.4,80.2,71.8,86.7,77.6,71.2,98,93,70,29.83,29.61,7,2,0,0.06
2013-7-11,87.1,79.8,73.9,83.8,77.9,73.3,98,94,70,29.73,29.60,7,2,0,0.00
2013-7-12,79.3,72.8,69.1,78.7,72.2,68.5,98,98,98,29.87,29.71,4,1,0,0.97
2013-7-13,85.5,75.6,68.9,84.9,75.0,68.3,98,98,98,30.10,29.87,5,1,0,0.67
2013-7-14,93.4,81.2,72.9,89.0,77.9,72.3,98,91,62,30.17,30.06,8,1,0,0.01
2013-7-15,95.4,83.0,72.0,89.7,79.6,71.4,98,91,62,30.08,29.94,7,1,0,0.00
2013-7-16,95.4,84.1,72.9,84.9,77.2,72.3,98,82,50,30.01,29.93,6,1,0,0.00
2013-7-17,97.3,84.5,72.0,88.6,77.6,71.4,98,83,51,30.00,29.87,4,1,0,0.00
2013-7-18,98.4,86.5,75.2,91.8,81.0,74.6,98,86,57,29.89,29.77,7,1,0,0.00
2013-7-19,98.2,88.2,79.3,95.9,84.1,78.7,98,89,62,29.78,29.60,7,2,0,0.00
2013-7-20,94.6,84.8,78.1,89.2,81.1,77.5,98,90,63,29.64,29.54,7,2,0,0.00
2013-7-21,90.1,80.0,72.5,85.0,76.6,71.9,98,90,65,29.75,29.63,7,1,0,0.00
2013-7-22,88.5,76.8,72.3,87.9,76.2,71.7,98,98,98,29.76,29.59,4,0,0,1.83
2013-7-23,89.1,77.4,70.9,86.1,76.4,70.3,98,97,71,29.58,29.38,6,2,0,0.91
2013-7-24,81.5,75.0,65.8,80.2,72.4,63.2,98,92,72,29.73,29.42,6,2,0,0.00
2013-7-25,69.6,66.1,62.4,69.0,64.3,59.3,98,94,76,29.86,29.73,5,1,0,0.00
2013-7-26,86.0,72.3,63.1,75.2,66.4,62.5,98,84,51,29.87,29.80,5,1,0,0.00
2013-7-27,88.2,72.9,60.4,78.2,67.4,59.8,98,85,56,29.86,29.74,10,1,0,0.00
2013-7-28,85.1,72.8,65.3,84.5,72.2,64.7,98,98,98,29.79,29.69,8,1,0,0.64
2013-7-29,87.1,72.7,64.4,76.9,66.9,61.4,98,85,44,29.93,29.76,8,1,0,0.05
2013-7-30,84.0,70.5,57.9,71.2,63.8,57.3,98,82,53,30.00,29.92,7,1,0,0.00
2013-7-31,83.7,71.8,58.3,74.5,65.6,57.7,98,83,55,29.98,29.84,6,1,0,0.00
2013-8-1,71.6,69.2,66.6,71.0,68.6,66.0,98,98,98,29.84,29.63,4,1,0,1.35
2013-8-2,86.7,74.6,63.7,77.7,69.1,63.1,98,85,54,29.73,29.60,8,1,0,0.01
2013-8-3,77.0,70.2,64.8,76.4,69.6,64.2,98,98,98,29.74,29.66,6,1,0,0.05
2013-8-4,82.8,70.3,59.7,72.6,63.8,59.1,98,83,50,29.80,29.66,11,2,0,0.00
2013-8-5,82.0,67.3,55.8,69.0,60.0,54.8,98,81,47,29.89,29.79,8,2,0,0.00
2013-8-6,82.6,68.7,55.9,73.9,63.2,55.3,98,86,48,29.94,29.85,9,1,0,0.00
2013-8-7,79.9,72.0,65.7,79.3,71.4,65.1,98,98,98,29.95,29.86,7,2,0,0.00
2013-8-8,88.7,76.9,69.4,86.2,76.2,68.8,98,98,89,29.87,29.79,8,2,0,0.08
2013-8-9,86.4,79.2,73.8,85.8,78.6,73.2,98,98,98,29.81,29.60,8,2,0,0.00
2013-8-10,86.9,75.9,67.3,77.7,71.9,66.7,98,89,60,29.84,29.67,7,1,0,0.00
2013-8-11,85.6,71.9,59.5,76.4,66.4,58.9,98,85,56,29.94,29.81,4,1,0,0.00
2013-8-12,87.6,74.2,67.8,81.7,71.8,67.2,98,93,60,29.84,29.72,5,0,0,0.54
2013-8-13,85.5,73.2,68.0,84.9,72.5,67.4,98,98,91,29.75,29.50,5,1,0,1.54
2013-8-14,76.3,66.2,57.0,69.6,60.1,55.1,98,83,56,29.87,29.57,10,3,0,0.00
2013-8-15,80.6,65.3,52.2,66.0,57.4,51.7,98,80,43,29.97,29.88,5,1,0,0.00
2013-8-16,82.6,67.2,52.7,67.2,59.0,52.2,98,78,46,30.02,29.94,5,1,0,0.00
2013-8-17,83.7,68.4,54.7,74.1,62.0,54.1,98,83,49,30.10,30.03,5,0,0,0.00
2013-8-18,78.1,68.2,61.3,75.5,65.9,60.7,98,93,66,30.07,29.94,2,0,0,0.01
2013-8-19,79.3,69.7,61.3,76.8,68.1,60.7,98,95,73,29.96,29.86,8,1,0,0.00
2013-8-20,90.3,74.9,60.8,80.0,69.7,60.2,98,86,55,29.95,29.87,5,1,0,0.00
2013-8-21,92.1,76.6,62.4,79.3,69.2,61.8,98,82,48,30.01,29.86,6,1,0,0.00
2013-8-22,79.3,73.8,70.2,78.7,73.2,69.6,98,98,98,29.88,29.69,5,1,0,1.06
2013-8-23,81.9,72.8,64.4,76.8,69.6,62.6,98,91,57,29.90,29.69,6,1,0,0.00
2013-8-24,86.2,69.6,59.4,69.7,62.1,58.7,98,81,43,30.16,29.90,6,1,0,0.00
2013-8-25,84.6,68.0,53.4,70.6,60.4,52.8,98,81,44,30.23,30.05,6,1,0,0.00
2013-8-26,86.0,74.0,62.8,80.4,70.9,62.2,98,91,65,30.07,29.73,6,2,0,0.00
2013-8-27,90.9,77.4,69.4,84.6,74.8,68.8,98,93,60,29.74,29.66,7,2,0,0.06
2013-8-28,80.6,73.0,67.1,80.0,72.4,66.5,98,98,98,29.71,29.65,0,0,0,0.36
2013-8-29,84.4,73.7,68.2,83.8,73.1,67.6,98,98,98,29.84,29.67,2,0,0,0.01
2013-8-30,84.7,75.0,68.0,84.1,74.4,67.4,98,98,98,29.84,29.67,6,2,0,0.00
2013-8-31,88.2,78.3,70.5,87.6,77.7,69.9,98,98,98,29.69,29.60,6,2,0,0.00
2013-9-1,91.6,77.0,70.7,91.0,76.4,70.1,98,98,98,29.66,29.58,6,1,0,0.46
2013-9-2,83.5,74.8,70.9,82.9,74.2,70.3,98,98,98,29.61,29.51,4,0,0,0.15
2013-9-3,84.6,74.5,65.8,83.1,73.3,65.2,98,96,60,29.71,29.51,7,2,0,0.00
2013-9-4,84.9,69.0,57.7,76.9,66.1,57.1,98,92,56,29.84,29.71,8,2,0,0.00
2013-9-5,81.3,67.4,56.1,77.3,63.0,54.7,98,88,44,29.95,29.76,10,2,0,0.00
2013-9-6,77.4,61.0,50.9,64.2,53.8,49.2,98,81,41,30.08,29.96,5,1,0,0.00
2013-9-7,83.5,63.7,47.1,69.6,56.1,46.6,98,81,42,29.97,29.74,5,1,0,0.00
2013-9-8,85.3,70.2,58.5,80.2,65.4,53.8,98,86,54,29.89,29.65,9,2,0,0.00
2013-9-9,77.4,63.9,50.5,70.5,59.9,50.0,98,88,59,30.05,29.89,6,1,0,0.00
2013-9-10,89.1,76.2,65.3,87.6,75.6,64.7,98,98,95,29.99,29.87,7,2,0,0.00
2013-9-11,95.2,82.6,72.5,92.1,79.9,71.9,98,93,69,29.94,29.79,12,2,0,0.00
2013-9-12,88.7,76.8,69.1,88.1,76.2,68.5,98,98,98,29.80,29.50,10,2,0,0.38
2013-9-13,78.3,68.1,57.6,73.3,65.1,57.0,98,91,63,29.68,29.45,10,2,0,0.13
2013-9-14,66.6,57.3,47.8,59.1,53.9,47.3,98,89,65,29.97,29.69,10,2,0,0.00
2013-9-15,77.9,58.2,43.3,65.1,53.1,42.8,98,86,50,30.06,29.91,5,1,0,0.00
2013-9-16,74.7,61.6,54.5,72.7,59.5,53.9,98,94,69,30.06,29.86,7,1,0,0.02
2013-9-17,73.9,55.5,45.0,56.1,49.0,44.5,98,82,42,30.27,30.06,6,1,0,0.00
2013-9-18,77.5,55.3,40.3,58.8,49.1,39.8,98,83,41,30.19,30.02,7,1,0,0.00
2013-9-19,82.2,59.9,43.3,67.6,54.8,42.8,98,86,48,30.04,29.90,8,1,0,0.00
2013-9-20,85.5,64.1,48.0,74.8,59.8,47.5,98,88,50,29.92,29.80,5,1,0,0.00
2013-9-21,81.9,66.0,50.0,78.9,63.0,49.5,98,92,56,29.83,29.48,16,2,0,0.37
2013-9-22,70.5,62.3,52.0,64.7,58.0,51.5,98,87,59,29.75,29.47,10,2,0,0.48
2013-9-23,70.5,56.1,46.0,55.1,51.3,45.5,98,86,56,29.88,29.74,8,2,0,0.00
2013-9-24,78.6,56.9,41.7,63.3,52.1,41.2,98,86,51,29.90,29.72,8,2,0,0.00
2013-9-25,80.2,58.0,45.1,66.5,53.2,44.6,98,86,49,29.80,29.70,4,1,0,0.00
2013-9-26,77.0,59.2,48.0,71.7,58.1,47.5,98,96,75,29.92,29.76,2,0,0,0.00
2013-9-27,73.2,61.4,53.2,65.0,58.7,52.6,98,92,68,30.10,29.92,4,0,0,0.00
2013-9-28,77.4,61.9,52.0,65.6,58.0,51.5,98,89,57,30.15,30.05,4,1,0,0.00
2013-9-29,75.4,59.7,48.4,68.8,57.3,47.9,98,93,69,30.05,29.89,4,0,0,0.00
2013-9-30,80.8,60.2,46.9,69.3,56.8,46.4,98,90,52,29.91,29.80,7,1,0,0.00
2013-10-1,82.6,64.2,48.9,81.0,63.5,48.4,98,98,82,29.85,29.73,5,1,0,0.00
2013-10-2,87.3,68.6,54.7,83.1,67.7,54.1,98,97,82,29.84,29.74,6,1,0,0.00
2013-10-3,80.1,67.9,56.3,78.4,66.8,55.7,98,97,85,29.94,29.83,4,0,0,0.00
2013-10-4,89.6,71.8,58.1,85.6,70.6,57.5,98,96,80,29.88,29.79,8,1,0,0.00
2013-10-5,84.0,71.2,63.3,83.4,70.6,62.7,98,98,98,29.90,29.82,3,1,0,0.00
2013-10-6,77.9,69.1,64.8,77.3,68.5,64.2,98,98,98,29.90,29.80,4,1,0,0.00
2013-10-7,80.8,65.8,54.7,80.2,65.2,54.1,98,98,98,29.82,29.57,11,2,0,0.82
2013-10-8,69.1,56.3,46.6,64.6,54.0,46.1,98,93,66,30.14,29.82,7,1,0,0.00
2013-10-9,63.3,55.8,49.8,62.7,55.2,49.3,98,98,98,30.21,30.09,6,1,0,0.00
2013-10-10,60.3,56.7,51.3,59.7,56.1,50.8,98,98,98,30.09,29.87,6,2,0,0.24
2013-10-11,65.5,61.6,57.7,64.9,61.0,57.1,98,98,98,29.89,29.81,6,2,0,0.11
2013-10-12,72.5,64.8,58.8,71.0,63.4,56.7,98,96,82,30.07,29.87,7,3,0,0.00
2013-10-13,69.3,59.9,49.8,67.6,59.2,49.3,98,98,88,30.20,30.06,7,2,0,0.00
2013-10-14,72.0,55.8,45.5,65.8,54.1,45.0,98,94,70,30.19,30.07,4,1,0,0.00
2013-10-15,74.3,56.3,45.7,71.2,52.3,45.2,98,89,41,30.10,29.95,7,1,0,0.00
2013-10-16,70.5,60.4,48.9,69.9,59.8,48.4,98,98,98,29.95,29.74,3,0,0,0.00
2013-10-17,75.0,66.1,60.8,74.4,65.5,60.2,98,98,98,29.75,29.50,7,1,0,0.00
2013-10-18,68.9,59.5,47.7,65.4,56.2,47.2,98,90,64,29.83,29.50,11,4,0,0.01
2013-10-19,64.9,52.9,40.1,61.3,51.6,39.6,98,96,79,29.82,29.60,5,1,0,0.04
2013-10-20,64.4,52.6,40.8,55.0,48.0,40.3,98,87,51,29.91,29.60,9,3,0,0.00
2013-10-21,68.7,51.6,36.1,58.2,45.7,35.6,98,84,48,29.99,29.82,11,1,0,0.00
2013-10-22,67.3,52.2,40.3,65.8,50.9,39.8,98,96,78,29.81,29.60,8,1,0,0.00
2013-10-23,59.2,47.4,39.2,55.2,46.1,38.7,98,96,77,29.65,29.43,6,1,0,0.00
2013-10-24,54.1,43.9,35.2,47.8,38.9,34.7,98,85,54,29.88,29.60,12,3,0,0.00
2013-10-25,54.5,41.9,32.9,47.5,38.8,32.4,98,90,62,30.08,29.87,10,2,0,0.00
2013-10-26,56.5,44.0,29.1,47.6,38.1,28.6,98,82,54,30.07,29.73,13,2,0,0.00
2013-10-27,59.4,48.2,37.0,48.8,43.3,36.5,98,85,57,29.96,29.70,13,2,0,0.00
2013-10-28,63.0,45.7,31.1,49.3,40.4,30.6,98,85,52,30.13,29.96,7,1,0,0.00
2013-10-29,61.7,47.0,37.4,51.5,43.8,36.9,98,90,59,30.24,30.14,5,1,0,0.00
2013-10-30,59.9,49.7,38.5,59.3,49.1,38.0,98,98,98,30.19,30.01,5,0,0,0.00
2013-10-31,69.1,60.0,50.9,68.5,59.4,50.4,98,98,98,30.06,29.63,8,2,0,0.04
2013-11-1,70.9,64.0,52.5,70.3,63.4,52.0,98,98,98,29.61,29.38,12,4,0,0.26
2013-11-2,70.2,57.2,49.3,66.6,53.5,48.8,98,89,60,29.61,29.45,8,1,0,0.00
2013-11-3,53.4,45.7,33.1,52.2,41.1,29.4,98,85,49,30.30,29.62,11,3,0,0.00
2013-11-4,48.6,37.0,28.6,36.8,29.9,25.3,98,79,41,30.49,30.29,7,1,0,0.00
2013-11-5,61.0,45.1,31.5,55.0,43.2,31.0,98,94,70,30.48,30.30,4,1,0,0.00
2013-11-6,67.8,52.5,38.1,63.3,51.1,37.6,98,95,78,30.33,29.89,8,1,0,0.00
2013-11-7,63.1,53.6,37.0,62.5,53.1,36.5,98,98,98,29.88,29.60,9,3,0,0.05
2013-11-8,51.4,43.3,35.2,42.6,37.9,34.7,98,82,55,30.09,29.79,14,4,0,0.00
2013-11-9,52.0,41.7,30.4,43.7,36.5,29.9,98,84,56,30.16,29.84,9,3,0,0.00
2013-11-10,61.2,48.7,39.4,48.2,40.3,35.8,98,75,53,29.93,29.69,14,5,0,0.00
2013-11-11,56.5,48.4,40.1,45.6,38.3,33.2,84,68,53,30.08,29.80,8,4,0,0.00
2013-11-12,50.0,37.5,26.1,49.1,32.9,23.3,98,84,60,30.15,29.76,17,4,0,0.02
2013-11-13,41.5,31.1,25.7,28.3,23.5,17.7,98,77,41,30.23,30.12,17,3,0,0.00
2013-11-14,54.5,39.3,25.7,33.2,26.3,18.6,98,67,25,30.12,30.01,16,4,0,0.00
2013-11-15,58.3,40.8,27.3,48.2,36.0,26.8,98,86,52,30.10,29.99,5,1,0,0.00
2013-11-16,61.2,48.6,37.2,59.7,48.0,36.7,98,98,92,30.17,30.07,5,1,0,0.04
2013-11-17,66.6,57.5,47.5,66.0,56.9,47.0,98,98,98,30.09,29.58,7,1,0,0.00
2013-11-18,67.8,60.3,48.9,63.4,48.1,34.7,98,68,36,29.62,29.42,16,6,0,0.14
2013-11-19,49.3,42.8,31.8,36.4,32.5,29.2,98,68,55,30.18,29.63,14,6,0,0.00
2013-11-20,48.7,34.1,25.9,34.4,24.9,12.6,98,75,23,30.45,30.18,7,1,0,0.00
2013-11-21,55.6,41.8,25.7,51.7,39.8,25.2,98,93,76,30.45,30.22,7,1,0,0.00
2013-11-22,59.7,52.0,47.3,59.1,51.4,46.8,98,98,98,30.22,29.76,9,2,0,0.03
2013-11-23,52.5,41.9,30.0,52.0,35.9,19.7,98,80,57,29.89,29.74,17,7,0,0.00
2013-11-24,29.8,25.0,20.8,16.4,7.4,4.2,58,47,39,30.26,29.89,20,8,0,0.00
2013-11-25,36.5,27.5,17.8,25.6,18.8,9.5,98,71,51,30.35,30.17,9,4,0,0.00
2013-11-26,52.3,36.4,31.3,51.8,34.0,24.0,98,91,72,30.18,29.52,7,2,0,0.73
2013-11-27,63.3,45.8,32.9,62.7,45.2,31.3,98,98,89,29.61,29.19,18,6,0,2.04
2013-11-28,37.6,31.2,26.1,32.0,25.5,19.5,98,81,51,30.31,29.64,16,5,0,0.00
2013-11-29,40.8,31.3,22.3,32.4,28.5,21.8,98,90,65,30.58,30.30,9,2,0,0.00
2013-11-30,39.7,30.7,19.4,38.7,30.1,18.9,98,97,92,30.59,30.20,6,1,0,0.00
2013-12-1,51.1,40.9,27.9,46.8,38.9,27.4,98,93,76,30.19,29.85,6,1,0,0.00
2013-12-2,51.8,41.2,32.0,45.0,39.1,31.5,98,93,71,29.85,29.70,4,0,0,0.00
2013-12-3,56.3,42.9,33.1,51.7,41.5,32.6,98,95,75,29.84,29.70,8,1,0,0.00
2013-12-4,54.9,43.3,31.6,54.3,42.8,31.1,98,98,98,29.95,29.84,4,0,0,0.00
2013-12-5,59.2,54.1,48.0,58.6,53.5,47.5,98,98,98,29.94,29.76,6,1,0,0.01
2013-12-6,62.4,48.3,37.4,61.8,47.8,36.9,98,98,98,29.97,29.68,8,3,0,0.89
2013-12-7,40.6,35.3,28.6,40.1,34.8,28.1,98,98,98,30.36,29.91,10,4,0,0.12
2013-12-8,32.5,28.3,24.1,32.0,27.8,23.6,98,98,98,30.44,30.18,4,2,0,0.00
2013-12-9,37.6,34.0,30.9,37.1,33.5,30.4,98,98,98,30.16,29.80,7,2,0,0.46
2013-12-10,36.9,30.8,22.3,36.4,30.3,21.8,98,98,98,29.99,29.72,5,1,0,0.01
2013-12-11,33.3,25.9,16.9,32.6,25.4,16.4,98,98,96,30.20,30.00,10,2,0,0.01
2013-12-12,28.6,23.3,18.1,24.3,19.2,14.9,98,85,59,30.21,30.01,12,4,0,0.00
2013-12-13,37.2,27.1,16.9,29.3,22.9,16.0,98,85,63,30.17,29.98,11,3,0,0.00
2013-12-14,31.6,27.2,23.4,31.1,26.7,22.9,98,98,98,30.29,29.54,8,3,0,0.00
2013-12-15,40.3,34.0,28.4,39.8,33.5,27.9,98,98,98,29.69,29.34,10,5,0,0.98
2013-12-16,31.3,25.9,16.5,30.2,21.0,15.1,98,83,55,30.05,29.68,13,4,0,0.00
2013-12-17,30.6,25.8,21.4,30.1,25.3,20.9,98,98,98,30.04,29.75,6,1,0,0.00
2013-12-18,38.3,28.4,18.9,35.3,27.0,18.4,98,95,77,30.01,29.76,15,3,0,0.02
2013-12-19,46.8,32.7,19.4,43.7,31.7,18.9,98,96,79,30.04,29.86,7,1,0,0.02
2013-12-20,54.0,41.8,29.3,48.0,40.3,28.8,98,95,79,29.93,29.81,8,2,0,0.00
2013-12-21,67.5,52.8,39.2,66.9,52.3,38.7,98,98,98,29.83,29.72,6,2,0,0.00
2013-12-22,69.8,65.2,60.8,69.2,64.6,60.2,98,98,98,29.77,29.63,12,5,0,0.00
2013-12-23,61.9,55.1,41.0,61.3,54.5,40.5,98,98,98,29.98,29.71,13,3,0,0.65
2013-12-24,41.0,34.2,24.4,40.3,32.8,23.9,98,95,82,30.21,29.94,13,5,0,0.00
2013-12-25,29.8,23.8,16.2,29.2,21.4,15.7,98,91,66,30.37,30.22,12,3,0,0.00
2013-12-26,39.2,29.1,19.9,38.7,28.6,19.4,98,98,98,30.24,30.00,10,2,0,0.00
2013-12-27,43.7,30.7,20.8,33.6,27.4,20.3,98,89,61,30.21,30.10,12,2,0,0.00
2013-12-28,58.5,40.1,23.7,42.0,34.5,23.2,98,83,47,30.13,29.91,9,3,0,0.00
2013-12-29,44.6,41.2,36.3,44.1,40.7,35.8,98,98,98,29.91,29.24,7,2,0,1.27
2013-12-30,45.1,35.5,22.6,44.6,35.0,22.1,98,98,94,30.01,29.54,13,4,0,0.00
2013-12-31,33.6,26.2,17.4,33.1,24.9,16.9,98,95,81,30.14,29.89,11,3,0,0.00
2014-1-1,37.4,28.6,18.5,34.0,27.3,18.0,98,95,85,30.24,30.04,7,2,0,0.00
2014-1-2,32.5,26.8,17.2,32.0,26.3,16.7,98,98,98,30.04,29.45,8,4,0,0.00